GFSNE_sfc_thetae_000.txt.gz
Theta_e
341 340 335 334 335 336 337 334 329 321 323 331 336 342 344 344 345 343 341 346 343 343 342 342 344 346 348 350 352 352 353 353 354 354 354 356 358 361
339 339 339 334 332 333 330 333 330 327 322 329 333 339 340 346 345 345 348 346 343 341 340 339 341 343 344 346 346 347 347 348 348 348 348 349 349 352
340 337 336 334 330 329 328 327 325 324 323 328 334 339 340 338 341 347 346 344 349 339 339 338 337 339 341 342 341 342 343 343 343 344 345 346 346 346
337 336 334 330 330 328 325 323 323 323 323 325 331 335 338 340 339 343 343 344 343 341 337 337 336 335 335 336 336 336 337 337 338 339 340 342 343 343
337 334 333 331 327 326 325 322 321 321 321 321 327 334 337 339 340 342 340 342 343 338 337 336 335 334 332 331 331 330 330 330 331 331 332 334 337 339
336 334 332 330 328 325 324 322 320 318 319 319 321 328 334 337 339 336 339 344 343 349 346 343 338 336 334 330 330 330 326 324 324 325 325 326 329 332
335 333 332 332 330 327 324 322 320 316 317 317 317 321 325 332 333 335 337 340 343 345 344 347 345 343 340 333 337 334 328 325 322 321 321 321 321 323
331 332 332 331 330 327 326 326 322 318 315 315 317 316 319 327 335 335 334 335 334 344 343 344 348 346 346 344 338 335 328 326 323 321 319 318 318 319
332 332 329 330 328 328 326 325 323 322 322 319 318 319 320 324 332 334 334 335 335 341 343 339 347 345 349 347 335 332 330 325 323 322 320 319 318 316
333 331 329 329 330 328 325 323 322 319 321 322 321 322 324 328 329 336 336 335 340 343 346 336 343 343 348 349 335 332 329 325 322 321 320 317 314 313
333 331 331 328 324 319 321 320 317 318 321 320 320 320 321 322 325 331 334 332 331 337 344 340 342 341 342 344 340 331 328 323 320 320 319 316 312 310
330 331 323 321 315 311 317 318 316 317 318 319 319 323 321 321 323 325 331 333 330 333 341 339 340 338 335 342 339 331 326 318 317 317 317 315 310 325
323 323 329 314 308 308 309 319 314 315 319 318 318 319 328 327 326 328 335 339 332 335 341 343 338 340 339 339 341 339 338 324 326 320 312 311 309 321
323 325 327 306 305 307 312 311 311 315 317 317 316 315 316 327 332 338 338 340 343 339 343 344 340 340 338 334 333 342 343 334 335 331 327 313 308 311
325 319 311 307 308 310 310 311 313 315 314 315 315 316 316 320 328 339 341 339 340 343 342 344 344 342 340 337 336 339 338 340 340 337 334 324 322 322
317 319 318 313 310 311 312 313 313 313 314 314 315 318 319 317 317 322 336 338 336 338 341 342 343 343 338 338 336 334 339 337 340 339 334 333 333 332
303 318 324 318 311 310 310 312 311 311 311 315 315 316 317 315 315 317 321 325 333 333 335 338 343 340 331 335 333 335 337 338 341 339 335 333 334 335
311 317 313 312 310 308 308 308 310 310 309 310 314 313 316 316 314 315 317 316 316 318 321 328 334 332 329 325 324 335 336 334 338 336 334 332 333 337
314 311 309 309 307 306 305 306 306 308 311 309 310 311 311 316 316 314 314 314 313 314 315 318 318 325 326 323 323 315 329 333 333 332 333 332 331 334
310 307 306 305 304 304 304 304 304 305 307 309 310 309 310 311 316 315 314 313 313 314 314 315 315 315 314 315 315 317 310 320 325 330 329 328 327 323
305 302 300 298 296 297 298 298 302 301 302 306 307 307 307 307 308 316 317 312 312 314 313 313 316 317 318 317 312 314 318 309 314 317 326 327 325 326
302 299 297 296 295 295 295 296 297 301 301 302 305 306 307 306 306 309 314 313 314 316 315 317 319 318 317 314 312 312 317 319 317 312 312 313 320 315
306 305 304 303 300 299 297 296 296 298 300 302 302 302 303 306 307 306 308 310 308 306 316 316 318 319 317 316 314 314 313 317 319 319 316 311 313 312

GFSNE_sfc_thetae_003.txt.gz
Theta_e
329 329 327 326 324 325 324 324 321 313 314 318 321 329 336 342 346 345 346 343 340 339 339 341 343 346 348 350 351 351 352 354 354 354 354 356 359 361
329 328 327 324 323 323 321 320 319 318 312 319 321 326 330 335 343 344 343 342 340 338 337 337 339 342 344 345 347 347 348 349 350 350 350 350 350 352
329 327 327 324 321 322 320 318 317 316 315 318 321 325 330 332 336 342 343 341 343 339 337 335 335 338 340 341 343 343 344 345 345 346 346 346 346 346
326 325 325 327 322 321 319 317 316 317 317 312 317 320 324 330 334 335 338 342 341 340 338 335 333 333 335 336 337 338 338 339 340 340 341 342 343 343
326 326 325 323 320 320 320 318 317 319 316 315 314 319 322 325 330 335 335 337 341 341 335 334 334 332 332 332 332 331 331 331 332 332 334 336 338 340
329 327 325 324 321 321 319 318 317 314 314 312 313 315 318 321 325 328 331 336 336 341 339 337 336 335 333 330 330 330 327 325 325 326 327 328 331 333
327 327 326 327 330 324 320 320 316 315 312 312 312 315 316 316 318 323 327 333 338 339 335 334 338 339 337 333 335 334 328 325 323 323 323 322 323 325
323 324 325 330 327 328 327 328 325 317 313 314 314 314 316 318 320 319 323 327 328 341 339 338 342 339 339 337 335 333 328 326 324 322 320 319 319 320
323 323 323 327 326 322 323 325 325 324 323 318 316 317 317 319 320 320 321 324 329 334 339 334 339 339 342 343 332 329 327 325 324 322 320 318 317 317
323 324 323 322 322 321 319 317 318 318 319 320 319 319 320 320 320 321 322 325 332 335 339 330 338 338 343 345 334 330 327 325 323 321 319 317 315 313
322 323 323 320 318 316 313 313 314 317 320 320 319 320 320 321 321 320 320 322 323 330 334 334 334 336 339 342 342 331 326 323 321 319 319 317 313 311
320 321 319 316 313 311 312 313 314 314 315 317 317 319 321 320 323 321 320 318 325 325 333 333 332 333 328 336 340 331 328 321 318 316 317 315 310 321
316 316 315 310 307 308 309 313 313 313 315 315 316 317 319 319 320 322 322 322 324 330 332 337 333 330 329 329 332 329 329 322 324 319 313 311 309 325
312 316 309 306 306 307 308 309 310 313 315 314 315 315 316 316 317 321 324 323 327 333 335 339 334 333 329 326 329 334 332 329 330 326 324 314 309 312
313 313 307 305 306 308 310 311 311 312 311 312 312 314 316 318 318 318 330 325 328 335 338 336 335 333 332 328 327 331 334 331 333 330 329 323 321 320
308 306 311 310 308 309 309 311 312 311 310 309 311 314 314 317 317 317 316 318 331 332 336 336 335 335 330 330 329 328 333 333 334 333 330 327 326 328
300 308 313 309 305 304 306 309 309 309 308 308 309 310 311 313 316 317 316 316 315 322 328 331 332 328 325 328 326 328 331 334 337 335 331 328 328 330
304 304 303 303 302 303 303 305 305 306 306 308 309 309 308 310 313 316 316 315 314 315 316 321 328 327 324 321 319 317 328 332 337 337 335 330 329 331
303 300 299 299 300 301 299 301 300 301 304 307 308 307 306 308 309 314 315 314 313 314 315 316 319 329 324 319 319 313 315 331 334 336 334 332 329 331
298 296 295 294 296 296 296 296 298 300 301 302 306 306 307 305 307 310 312 312 313 313 314 316 316 314 316 314 314 317 307 318 323 332 331 328 325 319
295 294 292 291 291 293 295 296 297 298 301 301 302 302 303 306 304 306 309 306 307 313 313 314 316 317 318 317 314 315 319 312 311 319 327 328 326 326
297 294 292 291 292 292 292 294 296 296 298 298 298 299 299 303 305 304 304 305 304 306 312 317 319 318 316 314 312 314 317 320 318 314 313 313 318 318
299 298 297 294 293 292 290 289 291 293 294 294 294 296 297 298 301 303 303 304 303 304 306 314 317 317 316 314 312 314 314 317 317 316 317 312 314 312

GFSNE_sfc_thetae_006.txt.gz
Theta_e
327 327 324 324 322 321 319 318 313 305 306 312 313 319 322 324 329 333 338 342 341 339 337 337 338 341 346 348 348 350 351 353 353 352 352 355 357 360
327 326 325 323 321 320 319 316 315 312 308 312 313 317 319 322 326 331 335 340 341 339 337 336 336 339 342 344 345 345 347 348 349 349 349 349 350 353
327 326 325 323 320 320 318 316 314 314 312 312 313 316 316 317 321 325 331 336 340 338 337 336 334 336 337 340 341 342 343 344 344 345 346 347 347 348
325 324 324 326 320 319 318 316 315 314 315 311 313 315 315 317 319 322 326 333 337 340 337 335 333 333 333 335 336 337 337 339 339 339 341 343 344 344
325 323 323 323 320 319 318 317 316 317 315 315 315 315 316 316 317 320 322 325 334 338 334 334 334 333 331 330 330 330 329 331 331 331 333 335 338 341
325 324 324 322 322 320 318 318 317 315 313 315 315 314 314 316 317 316 316 321 323 333 339 337 336 335 332 329 329 329 326 324 324 325 326 327 330 333
325 325 325 326 328 325 321 320 317 315 316 316 314 313 313 313 314 317 317 318 320 324 330 337 337 336 335 331 333 332 327 325 323 322 322 322 323 325
321 321 322 328 327 328 328 327 323 316 316 314 314 312 313 315 316 316 316 315 313 322 327 333 336 333 334 336 334 331 327 325 323 322 321 320 320 321
318 319 321 325 326 323 323 325 323 324 323 316 314 314 315 317 317 315 316 315 314 319 322 324 336 335 337 339 331 328 326 325 323 322 321 319 318 317
319 320 319 320 320 319 316 314 314 315 315 316 316 317 318 318 318 317 317 317 318 320 323 320 332 335 338 341 332 329 325 323 322 321 320 317 314 313
315 318 319 318 318 316 312 311 311 312 318 318 318 318 318 319 320 318 316 314 312 315 321 324 329 333 336 338 340 329 324 321 320 320 319 316 312 310
316 317 317 314 312 311 310 309 311 313 313 313 315 316 318 318 320 319 316 315 314 315 321 326 330 333 327 335 340 334 331 319 317 316 316 314 309 320
313 313 312 310 307 307 307 306 309 311 312 314 314 315 316 316 317 319 319 319 316 319 328 330 331 331 331 326 330 331 331 321 322 316 311 309 308 320
311 312 307 306 306 306 307 308 309 311 312 311 311 311 313 314 315 317 319 322 321 320 327 330 330 332 330 327 326 330 328 327 326 323 321 311 308 313
308 307 307 305 305 307 309 310 311 310 309 307 307 308 312 313 314 317 319 320 323 323 325 326 332 330 331 328 326 331 328 327 330 328 325 320 320 319
305 302 308 309 308 307 305 306 308 308 308 307 307 309 311 311 312 315 316 317 321 321 324 326 333 332 328 328 328 326 330 328 330 330 329 328 328 328
300 306 307 307 304 301 300 302 306 305 303 304 307 307 307 308 310 313 315 316 314 315 318 329 332 324 321 326 324 324 329 332 332 332 329 326 327 329
301 300 300 299 298 297 296 297 299 300 300 302 305 306 306 306 307 311 313 313 313 314 316 318 323 322 321 318 318 318 327 326 333 334 332 329 328 329
298 296 295 294 293 292 293 293 294 299 299 301 303 304 305 305 306 307 309 309 311 314 314 317 316 322 322 315 317 312 318 327 332 332 333 332 331 331
294 293 292 291 290 290 291 292 294 297 299 298 299 299 299 304 304 304 305 305 306 310 313 315 315 315 317 314 313 316 306 318 320 329 332 333 326 322
292 291 291 291 290 290 290 291 292 293 295 294 295 296 297 299 302 303 303 303 304 307 312 313 315 316 319 319 315 316 319 310 311 315 327 328 327 327
294 292 292 290 290 290 288 288 290 291 291 291 292 293 295 295 297 300 302 302 303 304 308 316 318 317 315 314 312 313 316 319 316 313 312 312 322 322
295 294 292 291 289 286 285 285 287 288 288 288 290 291 293 293 294 296 299 302 302 304 306 308 313 314 314 314 312 313 314 315 316 316 315 313 313 312

GFSNE_sfc_thetae_009.txt.gz
Theta_e
325 324 323 322 320 319 317 316 308 301 303 308 311 314 315 316 321 322 322 328 331 335 337 338 339 340 341 345 347 348 349 352 353 352 353 354 356 358
325 324 323 323 320 319 317 315 313 308 305 310 311 312 315 318 320 320 320 327 329 331 334 335 337 337 338 340 341 343 345 346 348 349 349 349 350 352
324 324 324 323 320 318 317 315 312 312 311 309 312 314 314 314 317 318 320 321 324 328 331 334 335 335 336 337 337 339 341 342 343 345 347 347 347 347
324 324 324 325 321 318 317 315 314 312 311 310 311 312 313 317 316 315 318 321 322 326 328 329 332 333 332 332 333 334 335 336 338 339 342 343 345 345
325 323 322 321 319 319 318 317 316 316 313 313 314 318 315 316 314 315 316 318 321 325 325 325 329 331 330 329 328 327 328 329 329 331 332 335 339 342
325 323 322 321 321 320 319 319 318 315 314 312 316 316 315 315 314 313 313 317 316 320 324 324 326 329 332 329 328 327 324 323 323 324 326 327 331 334
323 323 323 325 329 325 321 319 317 317 315 314 315 315 313 312 311 313 313 315 315 318 318 318 320 324 333 332 335 333 327 324 322 322 322 322 323 326
319 319 319 325 324 327 328 327 323 317 315 314 314 312 312 312 313 314 313 312 310 318 316 316 321 324 332 336 334 330 327 325 323 322 322 320 320 321
316 316 318 322 323 320 323 323 324 324 324 316 312 312 310 313 314 313 313 313 312 316 317 314 317 318 323 336 330 328 326 324 323 322 321 320 319 318
317 318 316 315 317 318 316 313 312 312 313 315 314 314 314 315 315 315 315 315 316 317 319 313 317 316 323 332 331 328 325 323 322 320 319 317 315 314
315 315 316 315 317 317 312 310 309 310 316 318 317 317 317 318 319 317 313 312 310 313 318 315 316 316 321 329 338 329 325 321 319 318 318 316 313 311
315 317 316 313 313 311 308 306 307 308 309 311 312 314 316 316 319 318 315 311 310 310 317 314 315 317 318 331 335 337 331 319 316 316 316 315 310 320
313 312 311 312 307 307 307 305 305 307 308 310 311 312 313 313 315 316 316 314 311 312 319 318 315 318 323 323 332 338 333 322 324 317 310 309 308 321
309 309 308 306 304 306 307 308 308 310 307 309 308 307 308 310 313 314 315 316 319 318 322 323 324 324 328 327 327 329 329 328 328 323 320 311 309 312
307 307 306 303 305 306 308 308 307 303 304 304 305 306 308 310 312 313 315 316 319 323 323 322 322 324 330 327 327 328 327 327 328 325 321 316 315 318
305 305 306 307 307 306 305 301 301 302 302 301 303 306 308 308 309 312 311 313 315 317 323 323 323 323 324 330 329 328 329 325 329 328 325 323 323 323
301 306 303 301 300 298 296 297 298 298 298 299 301 303 305 306 307 309 311 310 311 313 315 319 324 324 320 326 326 327 329 328 329 328 327 325 326 326
303 299 297 295 294 292 292 292 294 296 296 298 299 301 300 302 304 306 308 308 308 312 314 316 319 319 319 318 321 323 328 331 330 329 329 326 325 328
297 295 293 292 291 291 290 290 291 293 294 295 296 297 298 298 303 303 305 306 306 310 314 316 315 314 319 314 316 311 319 328 331 330 330 330 328 329
293 292 290 289 288 288 288 289 290 291 292 292 293 294 294 295 298 300 302 303 304 307 312 315 314 314 314 314 312 313 306 320 325 329 330 331 325 320
291 290 289 289 288 288 287 287 289 289 290 289 290 291 293 293 294 297 299 302 303 306 308 311 315 316 318 318 314 314 315 309 311 320 325 327 325 326
292 291 290 289 289 287 285 285 287 287 287 287 288 289 291 292 293 294 296 300 302 304 306 310 312 314 314 312 311 313 315 317 314 312 312 313 322 322
293 292 291 289 284 283 283 284 285 285 285 286 287 288 290 290 292 293 295 298 299 302 303 304 307 309 308 308 309 310 311 314 314 313 314 312 312 311

GFSNE_sfc_thetae_015.txt.gz
Theta_e
342 343 339 338 337 337 335 333 326 320 319 323 323 331 330 330 332 334 334 332 329 329 328 328 329 330 330 331 334 339 341 343 345 349 351 354 356 359
340 342 341 339 339 338 336 334 331 326 321 324 326 330 333 332 333 333 335 330 330 328 327 327 328 329 330 330 331 333 336 340 341 343 345 348 350 353
342 341 341 343 338 337 337 335 332 329 324 325 328 331 332 332 333 335 334 334 330 328 328 327 326 327 327 328 328 329 330 334 337 339 341 344 346 348
340 341 340 339 340 341 339 337 334 335 328 326 331 329 332 333 333 333 333 331 330 329 327 326 325 325 324 325 324 325 325 327 331 334 336 339 341 344
340 340 339 340 339 338 336 334 333 333 332 326 325 328 329 331 331 332 332 332 330 329 325 324 324 324 324 323 322 321 320 321 323 326 329 332 335 339
340 340 340 339 338 338 336 335 334 332 331 327 326 325 327 331 329 326 325 327 326 327 327 325 325 325 324 322 322 322 320 318 317 320 323 325 329 333
340 340 341 339 335 333 332 333 334 330 327 325 325 325 324 324 324 325 324 324 326 326 324 325 325 325 325 325 326 326 323 321 319 318 319 320 322 326
339 340 341 334 332 328 327 328 330 329 328 327 325 324 325 325 325 323 322 319 316 325 324 322 324 323 325 326 324 323 322 321 320 319 318 318 319 321
341 339 337 333 330 332 327 325 325 324 325 327 322 323 324 325 324 321 320 319 318 323 324 320 323 322 325 325 322 321 321 320 319 320 320 318 318 317
336 337 335 334 332 328 328 328 329 328 328 325 325 324 324 324 321 319 318 317 318 321 326 318 320 317 320 322 322 321 320 319 318 317 319 317 315 313
336 334 332 331 322 318 325 325 325 326 321 317 316 316 316 317 317 316 314 314 314 318 322 315 314 314 316 317 323 322 320 318 317 317 318 317 313 311
336 332 319 323 314 313 324 324 322 323 321 320 320 319 320 320 318 319 316 312 312 312 317 312 312 313 311 317 321 324 326 317 314 314 316 316 311 327
329 328 328 313 310 308 310 323 319 315 317 317 317 317 318 319 319 321 321 318 314 312 315 314 312 312 312 313 318 321 325 327 326 321 311 312 309 324
328 328 325 308 306 307 311 308 308 308 315 315 314 314 314 314 315 316 318 319 321 317 317 314 312 313 314 313 315 323 328 330 332 333 333 319 309 313
326 316 308 304 305 309 308 307 306 313 312 311 310 310 310 312 314 314 315 319 321 321 318 316 316 318 318 316 316 320 323 331 337 335 333 325 321 322
312 320 314 312 308 311 311 311 312 311 308 308 307 308 309 309 308 309 310 314 313 315 317 317 318 318 319 321 321 319 322 328 332 334 330 329 328 330
315 320 319 319 318 316 313 311 310 309 307 306 306 305 305 305 305 307 311 313 311 313 313 314 317 318 323 323 320 324 327 331 331 330 328 326 327 331
314 317 317 316 314 312 310 308 308 305 306 305 304 304 303 303 303 306 311 312 310 312 309 313 314 312 318 318 317 312 319 334 331 329 331 327 325 329
314 315 314 312 311 308 306 306 304 304 305 303 303 303 303 303 303 305 309 307 310 309 312 312 311 309 307 309 316 312 311 318 332 332 330 333 332 330
315 313 311 309 307 307 306 303 302 302 302 302 302 302 302 302 302 304 306 304 306 306 311 316 309 308 306 308 310 315 310 314 319 328 331 332 328 323
310 309 307 307 307 307 304 302 300 300 300 301 301 301 302 301 302 303 305 303 304 305 306 307 308 310 312 316 311 309 312 310 310 312 328 328 329 329
310 309 308 308 307 305 301 299 300 302 301 301 300 301 302 302 301 302 303 306 305 309 308 306 309 309 308 307 306 307 307 310 314 311 310 311 328 326
309 309 309 308 305 302 300 302 303 302 300 300 300 300 301 301 302 302 302 304 305 304 301 302 305 308 306 305 306 305 306 305 307 306 308 309 310 311

GFSNE_sfc_thetae_021.txt.gz
Theta_e
346 346 340 336 336 336 335 337 332 323 324 334 333 342 336 335 339 337 338 340 338 333 331 331 331 331 331 331 332 332 332 331 332 333 335 338 343 346
338 346 345 339 339 336 336 339 336 332 325 331 331 337 343 337 340 339 338 339 336 334 333 331 331 331 331 332 332 332 332 332 332 333 333 334 337 341
346 343 342 347 337 335 336 339 336 335 327 330 336 337 346 344 341 343 340 337 337 335 334 332 330 330 330 330 330 330 330 330 331 331 331 332 333 335
345 346 343 338 348 347 338 344 338 340 330 334 335 333 340 343 345 345 338 336 333 335 335 332 329 328 327 327 326 326 326 327 327 327 328 329 330 330
344 344 343 345 344 340 346 340 336 338 342 330 330 333 334 335 336 340 342 339 336 335 329 329 328 327 326 324 323 322 321 321 322 322 323 324 326 328
343 343 342 343 342 345 344 344 342 337 336 331 331 330 331 336 331 330 328 332 326 330 332 329 330 330 327 325 324 323 319 317 317 317 318 319 321 323
342 345 346 345 340 339 337 340 344 337 331 328 328 327 327 331 328 329 327 328 330 331 331 331 331 332 330 327 329 328 323 320 318 316 316 315 316 318
344 343 345 342 340 334 332 331 334 335 336 330 327 326 332 331 331 330 327 323 320 329 329 325 328 326 329 332 329 325 323 322 320 318 316 315 315 315
346 345 342 339 339 340 333 329 329 328 327 331 330 331 330 332 333 330 328 325 321 324 325 321 326 326 331 329 326 324 321 320 319 318 317 316 315 314
343 347 346 345 344 341 337 338 337 337 337 332 334 333 333 332 328 326 326 325 324 324 327 319 326 325 330 331 326 324 321 320 318 317 316 315 313 311
346 347 345 342 333 327 334 335 334 334 330 325 324 321 319 320 321 321 319 317 316 318 325 320 320 322 326 326 328 324 320 317 315 315 316 315 312 311
346 348 329 334 321 321 328 331 330 331 330 330 329 325 323 325 321 324 322 318 316 316 322 321 318 319 317 324 326 325 324 318 315 314 314 313 311 318
342 341 338 318 314 313 314 329 327 324 327 325 323 323 325 323 322 326 330 322 316 316 321 319 316 319 322 317 321 321 319 319 321 320 314 311 309 313
334 334 333 313 312 310 313 313 310 311 321 320 320 319 317 318 319 321 327 324 322 322 324 323 319 321 321 318 314 316 317 318 319 320 324 321 307 309
329 314 314 310 308 309 312 313 309 319 319 320 318 316 316 317 324 322 325 327 326 325 324 331 327 325 322 318 313 312 312 317 321 324 324 324 324 319
316 321 319 317 315 314 318 316 319 321 320 316 314 316 316 314 312 312 310 310 310 314 327 329 328 327 320 320 316 311 315 312 316 318 323 326 332 326
328 329 325 324 323 323 323 325 321 321 317 317 315 313 312 311 309 310 309 310 309 313 315 319 325 326 324 321 312 312 313 311 313 315 317 330 335 331
324 323 321 322 324 322 320 319 320 318 316 316 314 312 309 308 307 307 308 308 309 313 314 318 317 316 313 315 317 311 312 309 310 314 315 326 329 337
319 319 319 324 326 323 320 318 315 316 318 313 311 310 308 307 306 306 307 307 307 311 315 316 312 307 303 302 311 314 309 309 309 310 311 313 326 329
317 318 320 323 321 318 317 316 315 314 312 310 308 308 307 306 305 306 306 307 306 310 312 314 312 310 303 304 306 310 308 307 306 306 307 309 316 322
319 318 318 317 316 316 315 314 313 311 307 306 307 307 306 306 305 306 306 302 304 307 308 312 312 308 309 313 307 306 308 307 307 306 306 305 310 328
317 316 316 316 315 314 314 312 309 307 307 307 306 306 306 306 305 305 305 305 306 306 308 313 310 306 307 306 304 305 304 306 308 308 308 306 308 312
318 317 316 316 315 313 310 307 306 306 307 306 305 305 306 305 306 305 305 305 305 305 308 309 305 304 305 307 304 305 302 303 303 303 304 307 308 309

GFSNE_sfc_thetae_024.txt.gz
Theta_e
346 348 344 340 340 341 339 338 328 321 323 330 329 333 338 335 341 337 338 341 339 337 333 333 333 333 334 334 334 334 333 333 333 333 333 332 334 335
345 345 344 342 343 342 340 339 338 330 325 330 329 337 335 338 342 339 339 340 339 336 333 332 332 333 333 333 333 333 333 332 332 333 333 333 333 331
343 344 344 345 340 339 341 340 338 332 328 332 335 337 339 339 338 340 342 339 336 336 334 333 332 332 332 331 331 331 331 331 331 331 332 332 332 333
343 344 343 342 341 342 340 339 338 337 333 329 332 334 336 337 340 339 339 336 336 336 335 333 332 330 329 328 328 327 327 328 328 328 329 330 331 331
342 343 341 342 341 340 341 338 339 339 336 332 330 334 333 337 333 336 335 336 335 336 330 329 330 329 327 325 324 323 322 322 322 322 323 325 327 329
346 344 343 342 342 341 342 340 339 337 334 332 329 329 330 332 333 329 328 331 330 333 334 331 330 330 328 325 324 324 320 318 317 317 318 319 321 323
344 345 344 344 342 340 340 338 337 335 332 330 328 328 326 327 325 327 325 327 328 330 328 326 326 326 326 327 329 329 324 321 318 316 315 315 316 317
340 343 342 343 339 335 333 333 334 333 330 328 327 326 327 329 328 327 324 322 319 328 325 321 324 322 322 324 326 326 324 322 320 318 316 315 315 316
343 342 342 339 340 342 334 331 331 330 329 331 327 327 328 329 330 326 324 322 319 322 320 315 321 320 324 326 326 325 323 320 319 318 317 316 315 314
342 343 343 342 343 341 339 339 337 336 331 330 329 330 332 332 330 325 322 320 320 321 322 316 320 319 322 323 325 324 322 319 318 317 316 314 312 310
342 343 344 341 336 329 335 333 334 334 333 325 329 326 323 321 322 322 318 315 314 316 321 317 318 318 321 321 322 323 320 318 316 315 316 315 312 310
341 342 330 337 326 322 330 333 330 331 333 331 329 326 322 323 322 322 320 316 315 315 319 317 313 313 308 313 318 323 323 319 315 313 312 313 312 315
339 339 340 321 316 316 318 329 326 320 326 327 324 322 323 323 325 328 325 322 318 313 316 314 310 310 310 312 317 321 322 320 319 318 314 311 310 311
340 340 338 314 312 314 314 315 312 314 321 320 319 319 320 320 320 321 321 320 319 317 317 317 314 315 314 313 313 318 319 319 317 316 319 315 313 312
334 320 312 311 312 311 312 313 313 318 318 318 318 317 317 319 321 319 321 322 322 321 318 321 321 318 317 314 314 315 314 315 316 317 314 313 315 317
318 317 317 317 316 320 318 314 317 320 322 320 317 317 320 316 314 314 311 310 307 307 314 324 323 320 316 315 316 313 314 311 314 314 312 312 313 317
321 323 321 321 320 320 321 322 321 321 320 320 318 317 314 313 311 312 310 307 306 307 309 317 320 320 317 314 310 312 312 311 313 310 309 308 311 314
323 331 327 325 324 321 322 321 320 320 318 320 318 315 312 310 309 309 309 309 307 307 307 312 315 312 311 312 316 311 311 310 310 308 308 306 307 310
327 325 322 324 323 321 320 318 315 318 319 318 316 314 311 310 308 308 307 308 307 306 306 311 311 311 305 303 309 313 310 308 306 305 306 306 305 307
321 319 320 322 321 319 317 316 318 317 315 313 310 309 309 309 307 306 307 306 305 305 307 313 311 307 303 303 304 309 307 306 304 303 304 305 307 311
319 320 322 321 320 320 319 319 316 314 310 308 308 309 310 307 306 306 306 303 304 307 306 310 309 309 307 308 306 305 308 307 306 303 304 301 301 307
320 319 319 319 319 318 317 316 314 312 310 311 310 309 309 307 304 305 304 304 305 306 307 311 308 305 305 306 302 303 304 305 307 306 306 304 300 300
322 320 320 319 319 318 316 312 309 308 309 308 307 306 308 305 307 306 305 305 305 305 303 308 305 306 306 303 302 303 302 302 302 300 301 305 304 305

GFSNE_sfc_thetae_027.txt.gz
Theta_e
332 334 330 330 330 331 329 329 319 313 314 320 322 328 327 331 332 331 326 336 337 336 334 332 333 335 336 336 335 335 335 335 335 334 333 332 332 332
333 333 334 331 332 331 329 330 327 320 317 323 322 329 327 332 335 332 331 338 338 336 334 332 332 333 334 335 335 334 333 333 334 334 333 333 333 332
335 333 334 333 330 329 333 331 328 325 320 323 327 328 332 329 332 331 332 331 331 335 334 333 331 331 332 333 333 332 333 332 332 332 333 333 333 333
333 331 332 336 330 330 331 329 329 328 325 321 324 326 326 327 329 330 332 335 331 335 335 332 331 330 329 329 329 329 329 329 329 329 330 331 332 332
335 334 334 335 331 332 332 332 332 331 328 325 323 326 327 327 328 327 327 328 331 334 331 329 328 327 327 326 325 324 323 322 323 323 325 326 328 330
334 336 336 336 332 331 330 330 330 329 327 326 324 323 324 325 325 322 320 323 324 329 332 330 330 330 329 326 325 324 321 318 317 317 319 320 322 324
335 338 338 338 339 337 332 330 330 327 326 324 322 322 321 320 319 320 319 320 321 324 322 321 319 319 319 322 328 329 325 321 319 317 316 315 316 317
334 336 337 341 338 336 335 333 333 327 324 322 321 320 320 321 321 320 318 315 313 319 316 317 316 315 317 316 324 324 322 321 320 319 317 315 314 315
334 337 337 338 337 334 331 330 330 330 329 325 321 320 320 322 321 318 317 316 314 319 313 312 314 313 318 320 324 323 322 320 319 318 317 316 315 314
339 339 337 335 332 332 330 329 330 330 326 327 324 325 323 325 324 321 319 315 314 315 315 309 314 313 316 317 323 323 321 319 318 317 316 314 311 310
333 337 336 332 331 327 329 327 326 328 331 326 326 325 324 325 324 317 314 309 308 309 313 311 314 310 312 311 312 320 317 316 316 316 317 315 312 309
332 335 330 332 325 323 328 327 323 324 324 322 321 322 320 319 322 318 317 310 309 308 314 309 306 303 302 305 307 313 314 316 314 313 314 312 309 313
332 332 332 322 318 318 320 326 324 317 319 317 317 317 316 316 320 322 320 315 311 310 316 308 304 303 302 304 309 313 316 318 319 317 312 309 309 310
330 331 328 316 314 315 316 314 311 313 314 314 311 311 312 312 315 313 315 317 317 314 311 310 307 307 306 307 308 312 315 316 317 315 316 313 311 310
328 322 313 309 311 311 313 312 313 311 311 310 309 310 309 311 309 308 307 306 306 306 309 308 310 308 313 311 308 310 310 313 315 313 314 314 314 313
317 315 314 314 312 314 311 310 309 310 312 311 310 309 309 306 305 305 302 301 298 299 303 306 314 316 312 311 312 308 309 307 312 312 312 313 312 310
316 314 311 311 310 311 312 311 311 313 315 314 311 307 304 304 303 302 301 298 296 298 299 304 307 311 313 308 306 309 309 308 310 310 309 306 307 308
315 316 313 313 313 312 312 313 317 318 316 315 309 305 303 302 299 300 299 298 298 298 299 298 304 305 305 307 314 307 308 307 309 308 307 304 303 306
315 316 315 312 314 315 315 317 315 316 314 309 305 302 299 299 300 299 298 298 297 297 297 303 303 300 298 301 307 311 306 307 306 304 305 302 302 303
311 310 310 312 314 314 309 309 306 307 303 299 298 297 297 299 298 297 297 296 296 296 297 304 300 298 301 301 303 306 307 306 304 302 301 302 304 306
309 310 309 308 308 308 307 306 304 300 298 297 296 298 300 297 296 296 298 300 299 296 298 302 301 308 303 303 300 300 304 306 306 303 301 299 298 299
309 307 307 307 306 306 305 303 301 300 299 299 298 298 297 296 296 297 297 296 297 296 296 302 300 300 299 299 299 298 300 304 305 306 305 302 298 294
308 308 307 307 306 305 304 301 299 298 298 297 296 296 297 296 297 297 296 298 297 296 296 295 298 299 299 298 298 298 300 299 299 300 300 303 302 302

GFSNE_sfc_thetae_030.txt.gz
Theta_e
328 327 328 327 327 327 325 320 316 311 312 318 320 324 326 324 329 334 327 334 336 335 334 333 334 335 336 337 337 337 337 336 336 336 336 333 332 332
330 330 328 327 328 328 326 324 319 316 313 318 321 325 325 327 329 331 328 333 335 335 334 333 333 334 335 336 336 335 335 335 334 334 334 334 335 333
332 329 329 329 328 326 329 326 324 322 318 319 323 325 328 326 328 330 330 328 330 333 334 333 331 332 333 333 333 334 334 334 333 333 334 334 334 334
332 331 329 334 328 326 329 326 325 325 322 319 321 323 324 326 327 327 330 333 330 333 332 332 331 330 329 329 328 329 328 330 330 330 331 332 333 333
333 331 330 328 331 328 328 327 328 328 325 322 322 324 325 327 325 326 326 327 328 334 330 329 328 327 326 325 323 322 321 322 323 324 325 327 329 331
334 333 331 331 332 330 331 332 327 325 324 323 322 322 322 324 322 321 318 320 322 326 329 328 328 327 325 323 324 325 321 318 317 317 318 319 322 324
333 334 334 336 337 333 331 330 328 326 324 322 321 320 320 319 319 319 318 319 319 320 320 320 318 316 318 320 322 326 323 321 318 317 316 315 315 317
332 332 334 339 338 334 333 332 330 326 323 322 320 318 318 319 320 319 317 314 312 318 315 314 314 314 315 315 321 322 321 321 319 318 317 316 315 315
334 333 333 338 336 335 331 330 329 329 329 326 321 321 319 320 319 317 316 315 314 318 313 309 312 311 316 318 321 322 321 320 318 317 316 316 315 313
335 334 334 334 335 332 332 329 330 329 327 327 325 326 323 323 322 321 319 316 314 314 313 308 311 311 314 315 321 322 320 318 317 316 315 313 311 310
337 337 338 333 329 326 330 326 325 326 328 325 325 325 323 324 324 318 317 312 310 310 311 310 310 309 309 309 310 316 316 315 313 315 315 314 311 309
329 332 327 331 323 321 328 325 323 325 324 321 320 320 320 320 322 319 315 310 308 306 311 310 307 304 303 301 303 305 308 312 312 311 312 312 310 313
328 330 332 321 316 314 318 325 322 319 320 314 313 313 312 313 314 316 318 316 311 310 313 310 304 302 299 300 304 308 310 313 314 315 311 309 308 310
329 332 329 316 311 311 317 317 316 316 312 310 309 309 309 308 309 310 310 315 318 314 314 308 304 303 301 301 303 308 310 310 311 312 313 311 309 309
333 325 313 309 310 313 316 314 312 310 308 307 307 308 308 307 306 305 305 303 302 301 305 301 304 301 303 304 307 305 306 306 309 309 310 311 311 311
319 317 314 313 313 315 311 311 310 308 307 308 308 308 307 303 303 302 300 299 296 297 301 302 303 307 306 306 305 307 307 302 307 309 310 309 310 311
317 317 313 311 311 310 310 309 308 307 308 309 309 307 304 302 301 299 298 296 294 295 297 299 300 305 307 307 305 305 305 306 308 307 307 306 306 307
316 312 311 310 310 309 308 309 309 311 309 310 309 304 301 301 298 297 297 295 294 295 295 295 301 301 300 302 310 304 304 304 306 306 306 303 302 304
314 313 312 311 312 312 310 309 310 312 312 307 303 300 298 296 297 296 295 295 295 293 294 295 300 297 295 295 301 309 301 304 304 304 304 302 301 301
312 311 310 310 310 310 310 307 304 300 298 297 296 298 296 297 295 294 294 294 293 293 294 300 299 297 296 296 298 303 305 302 303 301 300 302 302 304
306 306 307 308 306 305 304 303 301 299 298 296 294 296 297 295 293 293 295 297 297 293 294 295 299 305 300 299 296 296 300 304 304 300 300 299 296 296
308 305 305 305 304 304 302 301 299 298 296 296 296 296 295 294 294 294 294 293 294 294 294 295 297 297 297 296 293 294 297 301 303 304 305 302 296 292
306 306 304 304 304 303 300 299 297 296 295 295 294 294 294 293 294 294 293 295 294 293 293 293 294 296 296 294 295 294 295 297 297 297 298 303 301 300

GFSNE_sfc_thetae_033.txt.gz
Theta_e
329 327 327 325 326 325 320 317 315 310 311 316 320 322 324 323 328 330 333 333 336 335 333 333 333 334 336 337 338 338 338 338 338 337 336 336 333 333
327 325 326 325 325 326 323 322 317 315 312 316 319 322 323 327 327 330 331 335 334 335 334 332 333 334 335 336 336 336 336 337 337 336 335 335 335 335
329 327 327 326 325 325 326 324 322 319 316 318 321 324 325 325 326 328 331 328 328 332 333 333 332 332 333 333 333 333 334 334 335 335 335 335 335 335
329 329 328 330 326 327 327 326 322 323 320 317 319 322 323 325 325 325 328 331 329 333 332 331 330 329 329 329 328 328 327 328 329 330 331 333 334 335
329 329 329 328 326 328 327 326 327 326 323 321 321 322 323 324 324 324 325 326 328 332 329 328 328 327 326 324 322 321 320 321 322 323 324 326 328 331
332 331 330 329 327 328 327 326 327 326 323 321 320 321 321 322 321 320 320 319 320 325 329 327 327 326 325 322 322 322 320 317 316 316 317 319 321 324
332 333 332 333 334 330 329 328 328 325 325 321 319 318 319 319 318 319 317 317 319 319 319 318 317 315 315 319 321 324 321 319 317 316 315 315 315 317
332 332 333 337 335 333 332 331 330 326 325 321 319 318 321 320 319 318 317 315 313 317 315 315 315 313 313 313 320 322 321 320 319 318 316 315 315 315
334 335 334 336 334 334 331 330 330 329 329 323 321 321 322 322 320 319 315 314 314 316 314 312 311 311 315 315 320 321 320 319 318 317 316 315 314 313
337 336 335 335 332 332 330 328 329 328 327 328 326 326 323 325 321 320 317 315 314 314 314 308 310 310 313 314 320 321 319 318 317 315 314 312 310 309
337 337 336 334 328 326 329 327 327 327 327 324 324 323 324 324 323 318 316 312 310 310 311 309 309 309 310 311 314 318 316 314 312 312 313 312 309 308
336 336 328 331 321 320 328 327 325 322 322 321 320 319 318 317 321 319 316 311 307 306 310 308 306 305 303 303 302 304 303 308 309 309 310 311 309 311
334 328 328 320 315 314 318 326 323 321 321 317 314 311 310 311 311 311 313 312 308 307 312 310 305 301 299 299 301 305 306 308 310 311 310 308 307 309
325 326 327 317 310 309 313 314 314 318 315 312 309 307 308 309 307 307 306 309 313 312 312 307 304 301 297 297 298 305 307 308 308 310 310 309 308 309
327 325 315 309 306 311 314 314 314 313 310 307 306 306 308 306 305 303 303 300 300 300 303 300 301 300 299 299 301 303 303 305 307 304 306 308 309 309
317 318 317 316 315 316 314 312 313 309 308 306 306 307 306 304 301 301 299 297 295 296 299 299 299 299 301 302 302 303 304 300 304 307 307 308 308 308
318 318 317 313 314 311 310 309 308 308 307 306 307 306 305 301 301 298 297 295 293 293 295 297 297 300 303 304 301 302 300 302 305 305 304 303 305 306
319 319 317 315 312 310 309 308 307 310 306 306 307 306 304 300 299 296 295 293 292 293 293 293 295 300 298 300 307 300 300 299 303 303 303 301 301 303
319 316 312 310 310 310 309 308 308 309 309 308 307 303 301 297 295 295 293 293 293 292 292 292 298 296 293 293 298 308 300 301 301 300 301 300 298 300
313 312 311 311 311 310 310 309 307 304 302 300 297 295 294 295 295 293 292 292 292 292 292 293 297 296 294 295 296 299 304 298 298 298 298 300 301 305
309 309 309 308 308 307 306 303 300 298 297 295 294 295 296 294 292 292 293 296 295 292 292 292 294 304 298 297 294 293 295 302 302 299 299 298 297 296
307 306 306 306 304 303 301 300 298 297 295 294 294 294 294 293 292 293 292 292 292 292 292 293 293 296 295 294 292 292 294 297 301 303 304 303 297 292
305 305 305 304 303 302 300 299 298 296 295 294 295 293 293 292 293 292 292 293 292 292 290 292 292 294 294 293 294 292 293 294 296 296 298 303 303 301

GFSNE_sfc_thetae_036.txt.gz
Theta_e
334 334 333 332 332 330 327 326 326 320 321 326 328 331 332 331 333 336 339 337 336 336 334 333 334 335 336 338 338 338 339 339 339 339 339 338 336 334
333 333 333 332 332 332 330 328 326 325 322 324 327 331 333 333 333 336 335 336 336 334 333 333 333 334 335 336 336 336 336 337 338 338 338 338 337 337
334 332 333 334 331 332 332 330 327 325 324 327 328 333 335 335 335 338 337 337 336 332 332 332 331 332 333 334 334 334 334 334 334 334 335 336 337 337
335 333 333 332 333 333 332 332 331 330 328 328 328 330 332 334 335 334 334 335 337 334 332 331 330 329 328 328 327 327 326 327 328 328 329 331 333 335
335 334 334 333 332 332 332 332 332 331 331 328 328 330 331 332 332 333 334 335 334 333 329 329 328 327 326 324 323 321 320 320 320 320 322 323 326 328
337 335 335 334 333 333 333 333 333 332 330 330 329 328 329 331 329 327 328 328 329 331 332 329 328 327 325 322 322 322 319 317 316 316 316 318 320 322
337 337 336 336 335 333 334 333 334 333 331 330 327 323 327 327 327 326 325 325 327 327 328 327 327 327 328 322 323 325 321 319 317 316 315 314 315 317
336 337 338 336 335 331 331 331 334 334 332 331 331 325 329 328 326 326 325 326 324 326 325 326 326 326 328 326 323 322 321 320 318 317 316 315 315 315
338 338 336 338 336 338 331 330 330 329 332 335 332 327 329 328 330 327 326 325 324 327 325 323 324 323 327 324 320 320 320 319 318 316 316 314 313 312
339 338 338 337 336 336 337 336 335 335 334 335 332 334 333 332 332 331 328 326 325 326 324 320 323 321 323 323 321 321 319 318 316 315 313 312 309 308
339 339 338 338 330 326 335 335 335 334 327 325 326 325 324 324 328 328 324 322 320 320 320 319 320 318 320 319 321 318 315 312 310 311 311 310 308 307
339 338 329 335 321 321 337 335 333 333 332 324 327 324 324 323 324 328 324 318 318 316 319 317 316 316 309 315 313 315 316 312 309 309 309 309 307 317
337 336 337 320 315 313 321 336 333 329 325 328 326 321 319 320 320 321 323 320 317 315 320 319 316 314 310 308 311 314 315 316 317 316 311 308 307 309
337 335 334 315 310 309 316 317 315 321 325 322 320 317 316 318 316 317 317 320 321 320 321 320 313 309 308 306 305 312 315 317 316 315 316 311 308 308
334 328 316 308 307 310 313 314 315 325 322 318 317 315 317 317 316 314 314 312 312 312 311 312 311 310 309 308 306 309 311 311 314 313 312 312 312 313
319 321 318 317 317 319 317 317 321 322 319 318 315 316 315 314 314 312 311 308 307 308 310 310 309 309 306 307 309 310 310 308 311 309 310 311 311 312
319 322 321 321 320 319 318 316 317 317 315 314 315 315 315 313 312 309 307 306 305 304 304 307 309 308 308 311 309 309 308 308 310 307 308 306 308 309
321 322 321 320 319 318 316 315 315 315 315 315 316 316 315 313 311 306 305 304 303 303 303 304 304 309 309 310 310 307 309 309 307 306 306 304 305 308
326 324 323 320 319 319 317 316 316 316 316 315 315 315 314 311 306 305 303 302 303 303 304 303 305 307 303 299 306 310 310 308 304 303 305 304 304 305
325 324 320 318 319 318 316 316 316 316 316 316 315 313 309 305 304 303 302 302 302 303 303 304 304 304 303 303 303 307 304 306 301 301 302 305 305 305
320 320 321 319 317 317 317 317 315 314 311 310 307 304 304 304 303 302 302 299 300 302 301 302 303 302 306 306 303 303 305 302 302 301 302 301 299 299
318 318 317 317 316 315 313 311 308 305 305 304 303 304 304 303 302 302 302 302 303 302 301 302 303 306 307 305 303 302 299 300 302 304 304 303 300 294
314 314 312 312 312 311 309 308 307 306 306 305 304 303 303 301 303 303 302 302 302 301 301 301 303 305 305 303 300 299 298 296 297 299 302 304 304 303

GFSNE_sfc_thetae_042.txt.gz
Theta_e
354 352 346 343 343 341 340 337 333 328 330 338 333 345 344 343 346 345 345 342 339 338 336 336 336 337 338 339 339 340 341 341 341 340 340 340 340 341
350 351 351 344 344 343 342 339 337 333 330 337 336 342 344 342 345 345 345 343 340 338 336 335 335 336 337 337 337 338 338 338 338 339 338 338 337 338
353 350 352 354 342 341 342 340 338 337 332 335 339 345 348 347 345 347 347 346 342 337 336 335 333 334 334 335 335 335 335 334 333 333 333 333 333 334
354 352 350 347 350 351 342 351 344 347 335 340 344 339 346 348 349 348 343 341 341 339 337 334 333 333 333 333 333 332 330 328 328 328 328 328 329 330
355 353 350 349 348 345 345 343 341 342 342 336 336 341 340 343 344 347 345 346 343 339 333 333 333 333 331 329 328 326 324 322 321 321 322 323 325 327
357 355 352 348 348 349 346 347 347 342 344 338 336 336 339 344 342 337 338 342 339 338 339 333 337 333 331 328 325 325 321 319 318 318 318 319 321 323
360 357 354 350 342 346 343 349 352 342 337 337 335 335 334 336 338 337 337 337 341 342 339 338 339 338 336 328 331 330 325 322 319 317 317 316 316 317
361 358 358 347 344 335 335 337 347 351 346 336 335 336 345 340 339 338 334 333 330 343 339 336 338 336 336 336 329 325 323 321 319 318 317 316 316 316
364 362 355 352 348 351 335 333 334 335 338 350 345 344 343 344 346 342 339 337 334 339 339 333 336 332 334 334 326 323 322 320 319 318 317 315 314 313
365 365 363 361 358 354 351 345 343 347 347 343 349 348 349 351 349 344 342 341 340 339 341 330 333 329 330 330 328 323 322 319 318 316 314 312 310 309
364 366 363 362 345 332 351 350 347 344 333 330 330 333 332 332 337 341 336 334 330 333 337 330 327 324 325 325 325 323 316 315 314 313 313 312 309 308
363 365 336 355 331 325 349 347 340 341 346 342 341 333 333 336 328 342 337 332 330 326 332 325 320 320 317 321 320 320 319 315 313 311 312 311 309 317
355 357 358 328 319 318 329 349 343 345 339 345 339 338 341 341 337 338 341 334 326 324 327 326 320 318 316 314 316 316 316 316 317 317 311 308 308 310
355 353 352 320 315 315 324 326 321 329 343 337 337 337 337 335 335 336 337 333 330 329 330 330 319 317 314 311 310 313 314 316 317 317 317 313 308 307
357 346 325 312 311 315 319 320 321 341 340 335 335 336 333 335 337 332 333 333 332 330 325 326 320 318 312 310 309 311 312 315 316 315 315 316 315 316
326 328 321 322 321 324 323 323 335 338 339 337 336 334 335 332 326 327 323 323 321 322 328 326 323 320 312 311 311 311 313 310 313 313 314 315 316 315
328 330 331 332 329 326 328 330 334 334 333 337 335 333 330 326 324 324 323 322 319 319 318 321 324 322 317 317 312 313 313 311 312 313 315 311 312 312
330 331 333 332 330 330 328 328 331 332 336 336 335 331 325 324 323 324 323 321 319 318 316 315 313 311 312 318 319 312 312 311 311 313 314 307 306 308
328 329 329 332 333 329 329 331 331 332 335 332 331 328 327 324 322 323 321 321 319 316 314 313 311 310 307 306 312 315 310 311 311 309 308 306 304 306
333 331 332 332 331 330 330 332 330 333 334 330 328 326 325 324 323 322 322 319 316 313 312 311 311 311 309 307 307 311 306 313 310 307 305 305 306 309
334 334 335 331 332 332 332 329 332 331 330 328 326 325 326 325 323 322 320 308 309 311 309 309 314 309 312 312 309 310 312 306 308 308 306 302 304 306
332 334 333 331 331 328 330 332 332 328 328 327 326 326 326 324 321 319 317 312 310 309 310 312 314 313 311 309 308 310 309 311 309 307 305 303 305 300
334 331 329 328 328 332 331 331 329 327 327 327 326 326 325 321 319 317 313 311 311 310 310 309 310 311 310 310 308 308 310 309 306 305 305 308 307 305

GFSNE_sfc_thetae_045.txt.gz
Theta_e
363 360 349 345 343 342 341 340 335 330 331 342 335 353 343 344 347 346 347 340 339 338 337 337 338 338 339 340 340 340 341 341 341 341 341 341 340 340
356 362 358 343 348 344 342 341 339 335 331 338 339 346 348 341 346 347 346 348 342 339 337 336 336 337 338 339 339 339 339 340 340 339 339 338 337 337
363 363 359 361 344 342 343 342 339 338 333 336 340 351 356 350 348 349 346 349 343 338 338 337 335 335 336 337 337 337 337 336 335 334 333 333 333 333
361 360 358 350 359 358 344 355 345 350 337 351 350 344 350 355 356 355 347 342 344 339 339 337 335 334 333 334 335 335 333 332 330 328 328 328 328 329
363 361 358 357 359 346 348 345 343 346 345 338 337 341 343 345 349 353 353 351 343 338 335 334 334 334 333 332 331 330 326 325 323 322 323 324 325 326
365 363 360 357 356 357 354 352 353 345 344 340 337 336 340 349 343 339 341 343 341 340 341 337 335 333 332 330 329 327 322 320 319 320 320 320 321 322
367 366 363 357 347 351 350 351 350 346 338 338 337 336 335 337 341 340 337 339 342 343 344 344 341 338 337 330 333 330 326 323 320 319 318 317 317 318
366 367 365 351 347 338 338 339 347 351 346 337 337 339 350 345 340 338 337 335 333 347 341 340 344 342 341 340 334 335 328 323 320 319 318 317 316 316
369 368 365 358 351 355 337 335 334 335 341 350 345 347 355 352 352 351 348 342 337 345 342 335 344 339 341 328 327 328 323 320 320 319 318 316 315 313
365 366 366 363 359 354 354 345 343 343 342 343 350 351 351 357 355 353 352 349 345 342 346 331 338 336 335 332 329 327 323 319 319 317 316 314 311 309
362 365 365 364 348 335 354 351 345 344 334 331 332 332 335 337 343 347 338 338 333 340 342 334 335 330 329 328 329 325 323 320 319 317 315 313 311 309
360 360 339 357 337 326 353 354 350 345 344 342 338 335 334 336 332 346 344 335 340 333 342 331 332 325 318 326 323 323 323 316 314 312 312 312 310 316
354 356 360 330 328 321 329 356 350 348 338 343 340 339 340 342 339 339 343 339 339 329 332 332 325 322 319 317 320 321 321 320 319 319 310 308 309 312
355 356 357 323 323 318 323 334 324 332 343 340 339 338 338 339 341 340 342 343 342 337 331 333 323 319 317 314 312 317 318 321 320 320 320 315 309 308
359 342 324 313 314 317 321 322 324 341 340 337 336 335 337 340 340 340 342 343 340 337 330 333 325 327 317 312 310 312 312 315 318 319 318 318 318 319
335 347 337 328 323 330 324 326 339 338 338 339 337 338 339 337 334 334 330 329 325 326 335 335 333 328 315 313 313 311 313 312 316 316 317 316 318 318
340 340 334 333 328 330 331 335 339 342 339 340 340 338 333 331 330 328 327 327 322 322 323 326 331 329 321 324 312 315 315 315 315 316 316 313 314 314
339 334 331 330 328 329 331 333 335 336 339 336 334 332 330 328 325 326 326 325 323 321 321 321 322 317 315 321 320 314 314 312 313 316 317 310 308 312
335 331 330 330 330 331 331 332 332 335 337 334 333 333 328 327 326 324 325 325 321 322 323 320 316 312 308 307 315 315 312 312 313 312 311 308 307 308
331 329 329 329 330 328 330 329 334 334 332 337 334 327 328 329 325 326 325 322 321 321 317 316 314 312 311 310 309 311 308 315 311 309 308 309 310 309
332 332 332 331 330 330 330 331 332 332 332 329 328 329 329 328 327 324 323 312 316 318 314 313 315 314 317 314 309 311 314 306 311 313 310 305 304 305
335 336 337 336 336 332 332 331 332 328 328 329 331 331 330 328 325 324 322 319 317 315 313 313 318 315 313 311 309 312 311 313 311 308 307 306 304 299
336 337 337 336 336 334 333 328 328 328 330 329 327 328 329 325 326 324 322 319 315 312 311 311 312 313 312 311 310 309 312 311 309 308 309 308 307 306

GFSNE_sfc_thetae_048.txt.gz
Theta_e
359 360 355 350 351 348 347 345 340 332 331 344 339 346 349 346 343 338 336 338 338 337 336 336 337 338 338 340 340 340 340 341 341 341 341 340 339 338
358 358 356 348 347 352 349 347 344 340 334 340 342 344 343 346 345 344 348 341 338 337 336 335 336 337 338 338 339 339 339 339 340 339 338 337 336 335
360 358 355 353 350 351 348 349 346 344 337 340 347 350 347 345 343 348 346 345 340 336 336 336 335 336 337 337 337 337 337 338 336 335 333 333 333 333
357 359 358 353 352 354 354 346 345 347 342 339 347 346 346 347 348 350 347 343 343 341 338 337 335 334 333 333 333 334 335 333 332 329 328 328 328 329
360 357 355 355 351 347 349 348 346 349 350 341 341 348 347 348 346 348 349 347 347 338 334 333 333 333 332 331 331 331 329 327 325 323 323 324 325 326
362 359 358 354 351 352 347 345 347 345 343 343 340 338 344 345 344 342 341 345 342 341 338 336 335 333 332 330 329 328 324 322 320 319 319 320 321 322
361 362 360 357 348 348 350 349 344 344 342 338 337 338 338 341 338 340 338 341 340 342 342 337 337 335 333 331 332 332 327 323 320 319 318 317 316 318
361 360 361 352 348 340 340 342 346 342 340 337 335 333 336 339 344 339 338 337 332 345 338 336 342 334 336 335 335 337 330 325 321 320 318 316 316 316
362 361 359 360 350 352 338 337 337 337 339 342 336 338 340 343 340 342 341 339 337 341 339 333 340 336 340 331 329 328 329 324 321 319 318 316 314 314
361 361 360 359 358 354 350 343 343 341 339 342 343 342 347 349 348 344 342 341 341 341 341 330 336 335 337 329 327 326 324 323 322 319 316 314 311 310
358 360 361 360 348 335 351 347 343 342 334 332 337 336 338 339 345 343 338 335 332 335 339 333 334 331 329 329 325 325 321 318 317 319 315 313 310 309
356 356 338 353 337 328 348 349 346 343 342 338 337 331 333 335 334 344 340 333 331 329 335 331 331 328 317 324 323 319 318 316 314 314 313 313 311 309
352 350 354 329 324 322 327 352 348 349 341 341 338 337 336 337 336 338 340 337 332 329 334 334 328 322 319 317 319 321 320 317 316 313 309 307 309 310
354 355 355 324 321 321 322 335 326 332 348 340 337 335 334 334 337 337 338 338 338 334 328 330 324 319 317 313 311 315 316 317 317 316 317 313 308 307
349 340 322 317 310 316 319 324 323 342 341 337 334 335 335 337 338 338 338 336 334 331 331 329 323 322 317 313 310 310 310 313 316 316 315 312 311 312
337 341 339 328 325 329 330 325 340 345 340 336 332 332 335 337 336 338 333 331 325 326 330 329 327 321 315 315 313 310 313 309 315 317 312 312 313 312
344 352 351 346 341 340 335 335 340 343 337 333 330 330 334 335 330 330 328 326 322 321 322 327 328 323 319 315 311 311 313 315 316 314 311 308 311 308
341 344 337 336 335 335 331 333 336 337 337 334 334 334 332 328 327 327 326 323 320 320 322 322 321 318 317 317 319 311 315 313 312 312 313 307 305 307
341 334 331 329 328 328 330 332 333 333 337 336 333 331 330 328 325 324 322 321 320 321 321 323 320 315 310 306 315 316 311 310 311 311 309 307 304 305
332 330 328 328 329 328 329 329 331 333 333 332 331 330 328 325 324 322 322 320 321 321 321 319 315 313 309 308 309 312 309 311 311 308 307 307 308 310
332 333 335 333 331 329 328 328 329 331 332 331 330 327 326 324 322 323 322 316 318 320 317 315 316 317 317 312 306 306 312 308 312 309 308 304 301 300
332 336 337 336 336 333 334 334 333 329 330 328 328 327 326 326 323 323 323 318 318 319 316 313 314 314 312 309 306 309 311 310 308 308 308 306 301 296
336 337 336 336 337 336 334 331 331 330 330 328 328 328 328 326 325 323 322 318 317 316 314 312 313 313 311 310 310 309 309 311 309 308 308 308 308 305